Regional Weather Roundup
Issued by NWS

Home | Current Version | Previous Version | Text Only | Print | Product List | Glossary Off
Versions: 1 2 3 4 5 6 7 8 9 10 11 12 13 14 15 16 17 18 19 20 21 22 23 24 25 26 27 28 29 30 31 32 33 34 35 36 37 38 39 40 41 42 43 44 45 46 47 48 49 50

775
ASUS43 KDTX 191110
RWRMI
MICHIGAN HOURLY REGIONAL WEATHER ROUNDUP
NATIONAL WEATHER SERVICE DETROIT/PONTIAC MI
600 AM EST SUN FEB 19 2017

NOTE: "FAIR" INDICATES FEW OR NO CLOUDS BELOW 12,000 FEET WITH NO
SIGNIFICANT WEATHER AND/OR OBSTRUCTION TO VISIBILITY.

MIZ047>049-052>055-059>063-066>070-074>076-081>083-191200-
SOUTHEAST LOWER MICHIGAN

CITY           SKY/WX    TMP DP  RH WIND       PRES   REMARKS
ADRIAN         PTCLDY    34  33  96 W5        29.91R WCI  30
ALMA           PTCLDY    35  32  88 CALM      29.88R
ANN ARBOR      PTCLDY    43  35  73 W7        29.88R
BAD AXE        CLOUDY    34  32  92 SW3       29.85R
CARO           CLOUDY    33  32  94 CALM      29.85R
DETROIT CITY   CLOUDY    43  36  76 W5        29.87R
DETROIT        CLOUDY    40  34  79 W5        29.89R
FLINT          PTCLDY    39  33  79 W6        29.88R WCI  35
GROSSE ILE     CLOUDY    37  34  89 CALM      29.88R
HILLSDALE      CLEAR     36  32  87 W5        29.90R WCI  32
HOWELL         PTCLDY    35  33  91 W6        29.88R WCI  30

CITY           SKY/WX    TMP DP  RH WIND       PRES   REMARKS
JACKSON        PTCLDY    32  29  88 W6        29.90R WCI  26
LAMBERTVILLE   PTCLDY    40  36  86 CALM      29.91R
LANSING        PTCLDY    38  31  76 SW3       29.89R
LAPEER         FAIR      39  35  84 CALM      29.86R
MASON          PTCLDY    33  32  94 CALM      29.89R
MONROE         PTCLDY    38  35  92 CALM      29.89R
MT. CLEMENS    CLOUDY    43  36  77 W6        29.84R
PONTIAC        CLOUDY    40  34  79 W6        29.86R
PORT HOPE        N/A     39  33  79 SW8       29.82R WCI  33
PORT HURON     CLOUDY    39  36  87 W5        29.86R
TRI CITIES     CLOUDY    36  33  89 W9        29.87R WCI  29
MIDLAND        FAIR      35  31  83 CALM      29.88R
TROY           CLOUDY    45  33  62 W5        29.88R
SAGINAW HB     CLOUDY    37  32  81 SW3       29.86R
$$
MIZ043>046-050>051-056>058-064>065-071>073-077>080-191200-
SOUTHWEST LOWER MICHIGAN

CITY           SKY/WX    TMP DP  RH WIND       PRES   REMARKS
BATTLE CREEK   PTCLDY    39  33  79 CALM      29.91R
BENTON HARBOR  CLEAR     29  27  92 CALM      29.94R FOG
BIG RAPIDS     CLEAR     31  29  95 CALM      29.89R
COLDWATER      CLOUDY    32  31  98 SW3       29.92R
FREMONT        FAIR      29  29 100 CALM      29.91R FOG
HOLLAND        PTCLDY    38  31  76 W3        29.93R
GRAND RAPIDS   PTCLDY    37  31  78 W8        29.90R WCI  31
IONIA          FAIR      37  33  83 W8        29.89R WCI  31
KALAMAZOO      PTCLDY    35  31  85 CALM      29.92R
LUDINGTON      PTCLDY    29  29  99 CALM      29.90R
MARSHALL       PTCLDY    32  32  99 CALM      29.90R
MOUNT PLEASANT CLOUDY    34  31  88 CALM      29.87R
MUSKEGON       PTCLDY    30  25  81 CALM      29.93R
SOUTH HAVEN    PTCLDY    29  28  96 CALM      29.93R
$$
MIZ016>042-191200-
NORTHERN LOWER MICHIGAN

CITY           SKY/WX    TMP DP  RH WIND       PRES   REMARKS
ALPENA         PTCLDY    37  31  78 W5        29.82R WCI  33
BEAVER ISLAND  CLEAR     39  31  73 W5        29.86R
BELLAIRE       CLEAR     25  25  99 CALM      29.88R
CADILLAC       CLEAR     28  26  91 CALM      29.87R
CHARLEVOIX     PTCLDY    37  31  78 W9        29.89R WCI  31
FRANKFORT      CLEAR     31  29  94 CALM      29.89R
GAYLORD        CLEAR     31  24  75 W3        29.84R
GRAYLING       CLEAR     31  30  96 W3        29.86R
HARBOR SPRINGS PTCLDY    32  30  92 CALM      29.85R
HOUGHTON LAKE  PTCLDY    30  27  88 CALM      29.86R
MANISTEE       CLEAR     26  25  96 CALM      29.91R
OSCODA         CLOUDY    35  30  83 SW6       29.83R WCI  29
PELLSTON       PTCLDY    27  23  85 W6        29.84R WCI  20
ROGERS CITY    PTCLDY    40  31  69 W6        29.82R
TRAVERSE CITY  CLEAR     32  28  85 CALM      29.87R
$$
MIZ007>008-015-191200-
EASTERN UPPER MICHIGAN

CITY           SKY/WX    TMP DP  RH WIND       PRES   REMARKS
KINROSS        CLEAR     37  31  78 NW9       29.80R WCI  30
MACKINAC ISLAN PTCLDY    33  30  88 W13       29.82R WCI  24
NEWBERRY       PTCLDY    38  31  76 NW9       29.83R WCI  31
S. S. MARIE    PTCLDY    34  31  88 W5        29.80R WCI  30
MUNISING         N/A     38  32  79 NW14      29.87R WCI  30
$$
MIZ004>006-011>014-085-191200-
CENTRAL UPPER MICHIGAN

CITY           SKY/WX    TMP DP  RH WIND       PRES   REMARKS
MANISTIQUE     MOCLDY    38  32  78 NW7       29.85R WCI  33
ESCANABA       MOCLDY    41  29  62 W6        29.88R
MENOMINEE      CLOUDY    43  29  57 NW3       29.91R
SAWYER-GWINN   CLOUDY    35  30  80 NW9       29.88R WCI  28
$$
MIZ001>003-009>011-084-191200-
WESTERN UPPER MICHIGAN

CITY           SKY/WX    TMP DP  RH WIND       PRES   REMARKS
IRON MOUNTAIN  PTCLDY    35  25  66 N6        29.88R WCI  30
HOUGHTON       CLEAR     32  27  81 NW9       29.88R WCI  24
COPPER HARBOR    N/A     36  32  85 N9        29.88R WCI  29
IRONWOOD       CLOUDY    28  25  88 CALM      29.92R
$$

ABBREVIATIONS USED IN REMARKS
   TC - TEMPERATURE IN CELSIUS
  WCI - WIND CHILL INDEX
   HX - HEAT INDEX
  VSB - VISIBILITY





USA.gov is the U.S. government's official web portal to all federal, state and local government web resources and services.